Weather History for K2I0 - June, 2013

Change the Weather History Date:

Friday, June 14, 2013

  Actual Average (KOWB) Record (KOWB)
Temperature  
Mean Temperature 70 °F -  
Max Temperature 83 °F 87 °F 97 °F (1967)
Min Temperature 58 °F 63 °F 48 °F (1933)
Cooling Degree Days 6    
Growing Degree Days 20 (Base 50)    
Moisture  
Dew Point 58 °F    
Average Humidity 65    
Maximum Humidity 98    
Minimum Humidity 40    
Precipitation  
Precipitation 0.00 in - - ()
Sea Level Pressure  
Sea Level Pressure 30.03 in    
Wind  
Wind Speed 4 mph (North)    
Max Wind Speed 13 mph    
Max Gust Speed 23 mph    
Visibility 10 miles    
Events      
Averages and records for this station are not official NWS values.
T = Trace of Precipitation, MM = Missing Value Source: NWS Daily Summary

Daily Weather History Graph

Daily Weather History Graph

Search for Another Location

Airport or City:

Trip Planner

Search our weather history database for the weather conditions in past years. The results will help you decide how hot, cold, wet, or windy it might be!

Date:

Astronomy

Jun. 14, 2013 Rise Set
Actual Time 5:28 AM CDT 8:11 PM CDT
Civil Twilight 4:57 AM CDT 8:42 PM CDT
Nautical Twilight 4:18 AM CDT 9:21 PM CDT
Astronomical Twilight 3:34 AM CDT 10:05 PM CDT
Moon 10:56 AM CDT (6/14) 11:54 PM CDT (6/14)
Length of Visible Light 15h 45m
Length of Day
14h 43m
Waxing Crescent, 30% of the Moon is Illuminated
Jun 14
Waxing Crescent
Jun 16
First Quarter
Jun 23
Full
Jun 29
Last Quarter
Jul 8
New

Hourly Weather History & Observations

Time (CDT) Temp. Heat Index Dew Point Humidity Pressure Visibility Wind Dir Wind Speed Gust Speed Precip Events Conditions
12:15 AM 66.2 °F - 56.8 °F 72% 29.98 in 10.0 mi ENE 4.6 mph - N/A   Clear
12:35 AM 65.8 °F - 56.3 °F 71% 29.98 in 10.0 mi East 4.6 mph - N/A   Clear
12:55 AM 65.8 °F - 56.1 °F 71% 29.98 in 10.0 mi Calm Calm - N/A   Clear
1:15 AM 65.8 °F - 55.9 °F 70% 29.97 in 10.0 mi Calm Calm - N/A   Clear
1:35 AM 63.1 °F - 57.2 °F 81% 29.97 in 10.0 mi SW 3.5 mph - N/A   Clear
1:55 AM 62.2 °F - 57.6 °F 85% 29.98 in 10.0 mi Calm Calm - N/A   Clear
2:15 AM 61.5 °F - 58.1 °F 89% 29.98 in 10.0 mi Calm Calm - N/A   Clear
2:35 AM 62.4 °F - 58.3 °F 86% 29.98 in 10.0 mi Calm Calm - N/A   Clear
2:55 AM 61.9 °F - 57.9 °F 87% 29.97 in 10.0 mi Calm Calm - N/A   Clear
3:15 AM 59.7 °F - 58.3 °F 95% 29.98 in 10.0 mi NE 3.5 mph - N/A   Clear
3:35 AM 59.2 °F - 57.2 °F 93% 29.98 in 10.0 mi North 5.8 mph - N/A   Clear
3:55 AM 58.6 °F - 58.1 °F 98% 30.00 in 10.0 mi NW 4.6 mph - N/A   Clear
4:15 AM 59.9 °F - 57.4 °F 91% 30.01 in 10.0 mi Calm Calm - N/A   Clear
4:35 AM 60.8 °F - 56.5 °F 86% 30.01 in 10.0 mi NW 3.5 mph - N/A   Clear
4:55 AM 60.3 °F - 56.8 °F 88% 30.01 in 10.0 mi West 3.5 mph - N/A   Clear
5:15 AM 60.1 °F - 56.5 °F 88% 30.02 in 10.0 mi WNW 3.5 mph - N/A   Clear
5:35 AM 60.8 °F - 56.5 °F 86% 30.01 in 10.0 mi West 4.6 mph - N/A   Clear
5:55 AM 59.9 °F - 56.8 °F 90% 30.02 in 10.0 mi Calm Calm - N/A   Clear
6:15 AM 61.5 °F - 57.6 °F 87% 30.03 in 10.0 mi WNW 3.5 mph - N/A   Clear
6:35 AM 62.6 °F - 59.0 °F 88% 30.03 in 10.0 mi Calm Calm - N/A   Clear
6:55 AM 64.4 °F - 59.0 °F 83% 30.03 in 10.0 mi NW 3.5 mph - N/A   Clear
7:15 AM 66.4 °F - 59.2 °F 78% 30.04 in 10.0 mi North 3.5 mph - N/A   Clear
7:35 AM 67.5 °F - 59.4 °F 75% 30.05 in 10.0 mi North 3.5 mph - N/A   Clear
7:55 AM 69.1 °F - 59.0 °F 70% 30.05 in 10.0 mi NNW 5.8 mph - N/A   Clear
8:15 AM 70.0 °F - 58.3 °F 66% 30.06 in 10.0 mi NNW 10.4 mph 16.1 mph N/A   Clear
8:35 AM 71.4 °F - 57.7 °F 62% 30.06 in 10.0 mi North 9.2 mph 17.3 mph N/A   Clear
8:55 AM 71.8 °F - 57.6 °F 61% 30.06 in 10.0 mi North 6.9 mph - N/A   Clear
9:15 AM 72.3 °F - 57.0 °F 59% 30.06 in 10.0 mi North 6.9 mph - N/A   Clear
9:35 AM 73.2 °F - 58.1 °F 59% 30.06 in 10.0 mi NNW 5.8 mph - N/A   Clear
9:55 AM 74.8 °F - 59.0 °F 58% 30.07 in 10.0 mi NNW 8.1 mph - N/A   Clear
10:15 AM 75.2 °F - 58.1 °F 55% 30.07 in 10.0 mi NNW 8.1 mph - N/A   Clear
10:35 AM 75.2 °F - 57.7 °F 54% 30.07 in 10.0 mi North 11.5 mph - N/A   Clear
10:55 AM 76.3 °F - 59.4 °F 56% 30.07 in 10.0 mi North 11.5 mph 20.7 mph N/A   Clear
11:15 AM 77.2 °F - 58.3 °F 52% 30.07 in 10.0 mi North 9.2 mph - N/A   Clear
11:35 AM 78.3 °F - 57.2 °F 48% 30.07 in 10.0 mi North 9.2 mph - N/A   Clear
11:55 AM 78.1 °F - 57.7 °F 49% 30.06 in 10.0 mi NNE 6.9 mph 16.1 mph N/A   Clear
12:15 PM 78.8 °F - 57.6 °F 48% 30.06 in 10.0 mi NNW 10.4 mph 17.3 mph N/A   Clear
12:35 PM 80.1 °F 80.6 °F 57.9 °F 47% 30.06 in 10.0 mi North 9.2 mph - N/A   Clear
12:55 PM 80.2 °F 80.5 °F 57.0 °F 45% 30.05 in 10.0 mi North 6.9 mph - N/A   Clear
1:15 PM 79.9 °F - 58.1 °F 47% 30.05 in 10.0 mi NNE 9.2 mph - N/A   Clear
1:35 PM 80.8 °F 81.1 °F 58.1 °F 46% 30.04 in 10.0 mi North 9.2 mph - N/A   Clear
1:55 PM 81.7 °F 81.6 °F 57.9 °F 44% 30.04 in 10.0 mi North 9.2 mph - N/A   Clear
2:15 PM 81.1 °F 81.0 °F 56.3 °F 42% 30.04 in 10.0 mi North 8.1 mph 16.1 mph N/A   Clear
2:35 PM 82.2 °F 82.1 °F 58.3 °F 44% 30.04 in 10.0 mi North 9.2 mph 23.0 mph N/A   Clear
2:55 PM 82.6 °F 82.3 °F 57.7 °F 43% 30.04 in 10.0 mi North 9.2 mph - N/A   Clear
3:15 PM 83.1 °F 82.7 °F 58.1 °F 42% 30.02 in 10.0 mi NNE 9.2 mph - N/A   Clear
3:35 PM 82.6 °F 82.1 °F 56.7 °F 41% 30.03 in 10.0 mi North 5.8 mph - N/A   Clear
3:55 PM 82.2 °F 81.9 °F 57.0 °F 42% 30.03 in 10.0 mi NNW 8.1 mph - N/A   Clear
4:15 PM 83.3 °F 82.9 °F 58.1 °F 42% 30.04 in 10.0 mi North 8.1 mph - N/A   Clear
4:35 PM 82.9 °F 82.4 °F 56.8 °F 41% 30.04 in 10.0 mi NNE 12.7 mph 16.1 mph N/A   Clear
4:55 PM 83.3 °F 82.8 °F 57.0 °F 41% 30.04 in 10.0 mi North 10.4 mph 16.1 mph N/A   Clear
5:15 PM 82.8 °F 82.1 °F 56.1 °F 40% 30.03 in 10.0 mi NNW 9.2 mph - N/A   Clear
5:35 PM 81.9 °F 81.7 °F 57.0 °F 43% 30.02 in 10.0 mi North 5.8 mph - N/A   Clear
5:55 PM 81.5 °F 81.1 °F 55.4 °F 41% 30.01 in 10.0 mi NE 5.8 mph - N/A   Clear
6:15 PM 81.5 °F 81.3 °F 56.1 °F 42% 30.02 in 10.0 mi NE 4.6 mph - N/A   Clear
6:35 PM 80.6 °F 80.8 °F 57.6 °F 45% 30.01 in 10.0 mi Calm Calm - N/A   Clear
6:55 PM 80.2 °F 80.7 °F 58.5 °F 47% 30.00 in 10.0 mi ENE 5.8 mph - N/A   Clear
7:15 PM 80.1 °F 80.7 °F 58.6 °F 48% 30.00 in 10.0 mi ENE 5.8 mph - N/A   Clear
7:35 PM 79.2 °F - 60.3 °F 52% 30.00 in 10.0 mi East 3.5 mph - N/A   Clear
7:55 PM 76.6 °F - 62.1 °F 61% 29.99 in 10.0 mi ESE 3.5 mph - N/A   Clear
8:15 PM 76.8 °F - 60.1 °F 56% 30.00 in 10.0 mi Calm Calm - N/A   Clear
8:35 PM 74.7 °F - 60.4 °F 61% 29.99 in 10.0 mi Calm Calm - N/A   Clear
8:55 PM 74.3 °F - 61.3 °F 64% 30.01 in 10.0 mi Calm Calm - N/A   Clear
9:15 PM 70.5 °F - 63.5 °F 78% 30.01 in 10.0 mi Calm Calm - N/A   Clear
9:35 PM 70.5 °F - 63.1 °F 77% 30.02 in 10.0 mi Calm Calm - N/A   Clear
9:55 PM 67.3 °F - 63.9 °F 89% 30.04 in 10.0 mi Calm Calm - N/A   Clear
10:15 PM 68.2 °F - 63.5 °F 85% 30.04 in 10.0 mi Calm Calm - N/A   Clear
10:55 PM 67.1 °F - 63.0 °F 87% 30.04 in 10.0 mi Calm Calm - N/A   Clear
11:15 PM 65.8 °F - 63.5 °F 92% 30.04 in 10.0 mi Calm Calm - N/A   Clear
11:35 PM 66.6 °F - 64.0 °F 92% 30.04 in 10.0 mi Calm Calm - N/A   Clear
11:55 PM 65.7 °F - 63.7 °F 93% 30.04 in 10.0 mi Calm Calm - N/A   Clear